Flag for Germany Weather past 2 weeks in Sundern (Sauerland), North Rhine-Westphalia, Germany

43 °F

Passing clouds.

Feels Like: 39 °F
Forecast: 32 / 39 °F
Wind: 6 mph from Southwest

Location: Dortmund / Wickede

Current Time: Nov 26, 2015 at 2:28:30 PM

Latest Report: Nov 26, 2015 at 1:50 PM

Visibility: N/A

Pressure: 30.04 "Hg

Humidity: 76%

Dew point: 36 °F

Location of Sundern (Sauerland)Location

Historic Weather in Sundern (Sauerland) — Graph


Sundern (Sauerland) temperature yesterday

Maximum temperature yesterday: 43 °F (at 11:20 AM)
Minimum temperature yesterday: 37 °F (at 5:50 AM)
Average temperature yesterday: 40 °F

Past Weeks' High & Low Weather Summary

High59 °F (Nov 17, 9:20 PM)94% (Nov 15, 6:50 PM)30.30 "Hg (Nov 15, 6:50 PM)
Low32 °F (Nov 22, 6:20 AM)55% (Nov 13, 1:20 PM)29.39 "Hg (Nov 21, 5:20 AM)
Average46 °F76%29.90 "Hg
* Reported Nov 11 12:20 PM — Nov 26 12:50 PM, Sundern (Sauerland), Weather by CustomWeather, © 2015

Note: Actual official high and low records may vary slightly from our data, if they occured in-between our weather recording intervals... More about our weather records


Sundern (Sauerland) weather history for previous 24 hours

Time TempWeatherWind HumidityBarometerVisibility
12:50 PM
Thu, Nov 26
41 °FScattered clouds.3 mph76%30.04 "HgN/A
12:20 PM41 °FScattered clouds.5 mph76%30.04 "HgN/A
11:50 AM41 °FPassing clouds.5 mph76%30.04 "HgN/A
11:20 AM41 °FPassing clouds.5 mph76%30.01 "HgN/A
10:50 AM39 °FScattered clouds.6 mph81%30.01 "HgN/A
10:20 AM39 °FPassing clouds.5 mph81%30.01 "HgN/A
9:50 AM37 °FSunny.5 mph87%29.98 "Hg10 mi
9:20 AM36 °FSunny.5 mph93%29.98 "Hg10 mi
8:50 AM37 °FScattered clouds.6 mph87%29.95 "HgN/A
8:20 AM37 °FScattered clouds.5 mph87%29.95 "HgN/A
7:50 AM37 °FPassing clouds.3 mph87%29.92 "HgN/A
7:20 AM37 °FPassing clouds.5 mph87%29.92 "HgN/A
6:50 AM37 °FPassing clouds.5 mph87%29.89 "HgN/A
6:20 AM36 °FPassing clouds.5 mph93%29.89 "HgN/A
5:50 AM37 °FPassing clouds.5 mph87%29.89 "HgN/A
5:20 AM37 °FPassing clouds.6 mph87%29.86 "HgN/A
10:50 PM
Wed, Nov 25
39 °FPassing clouds.7 mph87%29.77 "HgN/A
10:20 PM39 °FPassing clouds.6 mph87%29.74 "HgN/A
9:50 PM39 °FPassing clouds.7 mph87%29.74 "HgN/A
9:20 PM39 °FPartly cloudy.7 mph87%29.74 "HgN/A
8:50 PM39 °FPassing clouds.7 mph87%29.74 "HgN/A
8:20 PM39 °FPassing clouds.7 mph87%29.71 "HgN/A
7:50 PM39 °FPassing clouds.7 mph87%29.71 "HgN/A
7:20 PM39 °FPartly cloudy.6 mph87%29.71 "HgN/A
6:50 PM41 °FPartly cloudy.7 mph81%29.71 "HgN/A
6:20 PM41 °FPassing clouds.6 mph81%29.68 "HgN/A
5:50 PM41 °FPassing clouds.8 mph81%29.68 "HgN/A
5:20 PM41 °FPassing clouds.8 mph87%29.68 "HgN/A
4:50 PM41 °FPassing clouds.6 mph87%29.68 "HgN/A
4:20 PM41 °FPartly sunny.5 mph87%29.65 "HgN/A
3:50 PM41 °FPartly sunny.5 mph87%29.65 "HgN/A
3:20 PM41 °FPartly sunny.7 mph87%29.65 "HgN/A
2:50 PM43 °FScattered showers. Broken clouds.7 mph81%29.65 "HgN/A
2:20 PM41 °FScattered showers. Broken clouds.8 mph87%29.65 "HgN/A
Weather by CustomWeather, © 2015

See weather overviewHow to use our weather pages